Theta_e
306 300 297 300 302 302 301 300 299 303 306 303 302 302 305 308 308 308 310 311 313 314 317 322 324 328 331 331 334 341 343 346 351 358 356 357 355 356 356 357 358 357 357 357
302 298 304 305 305 303 302 299 298 302 304 303 302 301 305 307 308 309 310 311 313 315 316 318 323 328 330 333 337 338 340 350 347 345 357 357 356 353 356 356 356 360 356 356
299 302 306 304 302 300 300 299 298 298 302 304 302 299 302 306 308 310 311 313 314 314 315 319 321 327 329 332 333 336 343 345 351 347 343 346 354 352 349 350 353 355 358 357
302 306 304 303 300 301 296 303 301 300 298 293 302 292 301 305 306 309 310 311 312 313 316 318 320 325 326 327 331 337 342 345 342 348 346 344 340 343 344 347 350 352 355 354
300 302 302 300 301 303 299 303 301 300 298 297 297 294 298 304 303 306 310 312 314 315 316 317 318 322 323 327 329 334 340 340 344 348 348 340 339 337 339 342 346 347 354 354
301 305 304 303 304 304 304 301 300 300 297 291 295 295 296 300 304 308 311 313 313 314 315 316 318 320 322 324 327 332 334 339 341 344 344 342 342 340 339 340 342 344 342 354
298 299 303 304 300 303 302 298 290 289 290 290 299 296 300 307 309 310 310 311 313 314 314 314 315 315 321 323 326 325 332 331 335 336 338 340 342 343 341 338 338 340 338 339
294 292 300 305 301 298 299 298 291 284 287 290 299 293 299 309 311 312 313 312 314 313 314 314 314 316 315 320 324 326 327 325 330 329 333 339 342 335 335 337 336 335 335 335
294 294 304 305 306 304 298 294 300 294 295 291 294 299 304 308 309 310 310 311 312 313 314 313 314 316 318 321 325 327 327 327 327 325 327 333 337 336 335 338 337 334 336 337
299 293 301 303 305 305 301 303 292 294 286 285 291 294 296 301 304 308 308 309 311 313 312 313 313 317 319 320 326 325 326 325 325 325 326 325 327 328 335 336 336 337 339 338
302 298 296 300 298 297 298 296 298 297 294 287 286 291 305 304 306 307 309 309 310 311 311 312 312 315 314 315 315 317 322 322 322 323 325 324 324 325 327 330 333 336 337 339
302 298 293 295 301 303 302 298 299 291 290 294 292 291 306 307 307 308 308 309 310 310 310 310 311 312 311 313 314 315 321 320 319 320 320 324 325 323 324 325 329 333 333 335
302 296 289 290 295 301 297 298 299 298 297 290 288 291 305 306 304 306 307 308 309 309 308 309 310 311 311 312 313 313 314 315 316 316 315 317 323 323 322 323 325 329 328 326
302 296 291 286 290 295 292 295 296 294 287 290 292 294 299 302 303 305 307 308 308 308 309 309 310 310 311 312 312 312 313 314 314 314 313 314 316 320 321 321 321 325 326 325
298 291 294 294 294 294 293 293 294 293 294 290 293 293 297 301 303 304 305 306 306 307 308 309 309 309 310 311 312 312 312 312 313 312 311 313 315 316 317 318 320 321 323 322
299 291 294 291 294 294 292 295 295 295 295 295 295 294 302 303 304 303 305 305 304 305 306 307 309 309 310 310 310 311 312 312 313 311 311 312 313 313 313 314 315 318 322 322
296 293 290 286 293 293 289 294 295 296 298 296 291 297 301 301 301 302 303 303 303 304 305 306 307 308 309 309 310 309 310 311 310 309 309 309 310 309 310 312 313 313 317 322
295 293 290 286 289 281 293 301 300 297 297 299 299 300 301 302 303 303 304 303 303 303 303 305 305 306 306 307 308 308 308 308 308 306 306 307 307 307 307 307 310 313 315 319
299 294 288 285 286 290 293 297 296 293 294 301 299 301 301 302 302 301 305 304 304 304 304 304 305 305 305 305 306 305 304 305 305 304 305 305 305 304 305 305 308 308 311 314
299 298 288 288 283 281 294 299 302 299 289 301 301 300 300 300 293 297 304 304 304 305 304 304 304 304 303 303 306 303 303 303 302 302 303 304 303 304 303 305 306 307 308 311
291 291 286 285 284 289 298 301 303 288 291 301 301 300 300 298 300 303 304 304 305 304 304 304 304 302 302 302 302 299 301 301 303 304 304 303 303 303 304 304 307 307 306 307
291 289 287 289 285 283 301 300 294 298 303 302 301 301 300 301 302 302 303 302 302 301 302 302 301 300 300 300 299 297 296 299 302 303 302 301 301 302 303 304 304 305 306 305
290 294 291 293 292 300 302 302 305 304 301 301 302 302 301 300 300 300 300 300 300 302 301 300 298 296 297 297 298 293 297 299 299 298 298 298 299 301 302 302 302 301 302 303
296 299 295 293 297 299 301 303 304 304 302 303 303 301 301 299 299 299 299 300 299 300 299 299 296 293 292 293 293 294 294 295 295 295 295 296 297 299 301 301 301 301 301 301
295 296 294 294 297 300 301 301 303 303 303 303 302 301 300 300 299 299 298 298 299 299 298 295 293 291 290 291 291 292 292 293 292 293 294 294 295 296 298 299 299 299 301 301
296 295 293 291 298 298 299 302 303 302 301 301 301 300 301 300 299 299 297 299 298 296 294 291 290 289 289 289 290 290 292 291 291 291 291 292 293 294 296 296 296 295 295 296
Wind_Speed
14 12 14 17 18 19 21 21 16 14 13 15 18 14 14 12 14 15 16 16 15 13 13 7 7 6 6 6 5 3 4 7 4 5 7 7 9 9 10 10 13 12 12 14
15 16 17 18 18 18 18 18 17 17 19 16 16 16 15 18 19 17 16 13 13 14 13 11 8 7 7 8 8 6 5 4 4 4 5 4 7 10 9 9 10 8 13 14
17 18 16 18 15 19 16 15 16 19 19 19 17 16 16 20 19 18 17 14 13 12 11 11 10 7 7 6 5 1 3 5 4 6 5 5 7 7 6 9 13 12 13 16
16 18 19 12 12 13 19 16 19 19 17 14 17 15 18 20 20 22 21 19 16 13 11 9 9 7 7 5 5 4 4 2 3 5 4 8 6 8 10 9 6 11 18 19
15 16 16 15 16 19 17 17 17 19 16 17 18 14 14 16 18 18 16 16 14 13 9 10 9 9 7 5 4 5 6 6 2 1 4 6 8 7 5 7 11 11 11 15
17 21 17 9 12 10 8 14 18 15 15 16 19 19 16 17 18 17 17 14 13 9 13 8 8 4 1 5 5 5 7 6 7 4 5 6 7 8 8 9 9 9 10 8
16 17 17 17 14 15 14 12 10 14 15 15 21 20 15 14 12 11 7 7 14 11 8 6 6 2 4 3 3 5 4 6 6 7 6 6 6 6 8 9 10 10 9 8
10 10 12 9 11 12 16 11 11 19 15 18 23 14 14 14 16 14 9 5 14 10 8 6 2 2 3 4 3 3 4 7 7 9 8 6 5 6 7 7 8 10 10 10
8 16 13 9 16 16 10 11 14 16 15 17 15 23 20 10 13 18 9 7 7 9 8 4 4 4 4 5 3 3 4 4 5 10 10 7 6 7 8 9 10 10 11 11
7 14 11 15 12 17 13 12 7 4 6 13 13 13 10 14 12 9 7 2 5 6 2 4 6 6 6 6 3 7 6 4 3 6 8 8 10 11 8 7 9 12 12 12
9 11 12 14 14 18 16 12 11 12 13 7 12 10 2 10 14 13 4 4 6 6 8 10 12 9 9 11 12 11 5 5 6 6 5 6 8 11 13 10 8 10 11 12
4 4 10 17 19 21 19 19 17 7 10 11 13 8 14 9 6 7 11 8 5 7 10 11 11 11 9 10 9 11 6 3 6 6 7 6 5 8 10 11 13 10 11 11
8 4 8 9 12 9 8 14 12 13 7 8 11 11 7 5 11 14 13 12 13 14 15 12 10 12 11 10 9 9 8 9 8 9 11 11 6 7 9 10 10 11 11 10
5 9 13 13 17 19 18 13 13 12 4 5 14 18 16 11 12 15 14 9 16 14 13 13 12 11 12 10 10 10 10 10 10 11 11 10 10 9 9 10 13 10 10 10
3 10 16 16 17 19 23 24 21 20 22 18 22 21 21 18 17 11 16 11 10 14 13 14 14 11 11 13 11 11 10 9 10 12 13 12 11 11 11 11 13 12 9 12
3 10 14 19 20 21 24 24 24 22 23 22 23 21 19 15 12 8 7 10 12 15 15 14 14 14 11 11 12 13 13 11 11 13 14 13 13 13 12 14 13 14 11 11
5 4 6 14 18 13 16 19 19 13 17 20 15 11 11 9 12 11 11 13 16 17 18 17 16 16 15 14 12 12 14 10 13 14 14 14 14 15 16 14 14 14 13 10
11 10 5 9 13 14 10 8 19 10 9 13 12 10 11 9 11 14 15 14 15 19 20 18 17 18 19 19 16 12 13 15 13 14 14 14 15 16 18 19 18 15 11 10
16 11 3 4 9 17 21 7 3 6 8 11 7 12 13 16 19 17 14 20 18 17 17 16 16 16 16 17 17 16 18 17 17 17 15 15 16 18 16 19 19 17 16 12
13 14 6 7 7 6 8 2 4 4 10 12 11 13 16 18 14 14 20 21 20 19 17 17 17 15 16 15 15 17 17 16 17 16 16 15 15 16 17 18 17 13 14 14
3 3 9 9 8 10 4 3 13 7 5 10 12 15 16 15 14 19 20 18 18 19 18 18 17 13 14 17 17 19 19 18 14 14 15 15 15 16 18 16 13 13 12 14
8 6 6 7 7 8 11 12 5 3 7 11 13 16 17 18 19 20 20 20 20 21 21 20 16 16 19 19 21 18 18 20 19 17 17 15 16 15 14 15 14 15 14 13
4 4 1 5 4 3 6 9 5 6 10 11 16 16 17 20 20 21 20 20 19 21 17 14 15 20 19 18 17 22 17 15 19 18 17 16 16 15 15 15 14 12 13 11
5 3 4 4 2 10 7 4 5 8 12 15 15 18 18 20 21 21 19 19 19 17 19 18 18 18 20 17 18 18 18 17 18 18 17 15 15 15 14 11 11 11 11 11
11 9 10 14 7 16 1 5 12 13 15 16 17 18 18 20 21 20 19 19 18 19 16 14 18 18 20 19 18 17 17 18 17 16 15 14 13 14 14 13 11 11 12 12
10 6 4 5 6 5 11 11 14 14 15 16 18 19 19 19 19 20 18 17 17 19 16 18 19 18 20 20 19 18 17 16 16 15 13 12 11 11 11 11 11 16 20 18
Wind_Direction
216 236 235 232 228 254 271 286 298 291 236 197 213 228 250 265 262 217 216 216 226 227 249 226 221 221 178 128 130 211 247 282 307 292 187 218 226 212 217 225 213 204 188 190
242 226 250 254 255 254 254 266 273 283 292 290 280 267 256 256 259 261 258 242 242 230 221 232 227 198 175 171 180 183 214 230 250 268 272 243 213 220 211 214 220 201 186 197
232 246 246 223 261 267 259 264 272 273 281 282 274 261 268 262 256 259 262 257 238 257 245 225 216 205 173 160 141 185 246 218 228 222 287 296 256 260 264 230 199 206 198 196
246 249 261 241 237 263 274 245 253 260 266 266 266 271 255 251 241 229 230 229 233 230 255 251 237 83 70 38 14 356 310 256 225 244 258 266 275 263 248 253 239 221 204 204
262 254 255 259 278 282 264 257 269 285 281 281 261 265 266 263 256 252 239 226 219 204 211 91 69 53 41 18 338 344 328 258 211 20 313 300 295 280 259 277 243 254 208 214
290 301 293 292 281 321 324 300 284 261 267 256 259 256 258 261 262 258 234 210 199 188 103 96 85 67 344 14 6 32 357 350 338 310 263 255 276 284 292 295 305 290 248 215
261 259 275 288 264 262 269 254 264 251 240 247 242 243 244 274 336 331 313 70 103 103 120 110 93 14 24 348 6 3 356 336 329 323 301 290 278 275 279 283 282 275 288 283
271 274 238 280 271 283 283 276 268 281 286 293 315 290 293 330 311 301 260 124 125 142 146 116 148 259 275 297 357 318 329 320 336 317 292 277 299 289 284 277 263 273 278 278
293 255 293 356 302 313 292 270 295 308 293 269 261 273 271 1 353 350 178 183 138 101 75 43 297 305 337 309 298 308 297 278 335 321 314 302 276 252 265 269 275 282 286 287
276 285 276 286 292 283 282 305 320 244 266 272 271 294 302 354 330 16 330 2 287 67 67 275 299 314 309 307 279 241 253 298 272 287 310 330 322 310 276 270 278 276 274 271
259 261 278 279 263 264 266 219 245 256 262 256 273 271 14 41 354 344 336 327 18 339 328 304 313 314 328 333 320 306 270 269 291 286 271 293 319 317 316 301 268 282 290 281
293 281 279 281 287 276 267 266 259 232 235 239 259 263 288 70 17 344 330 349 325 306 295 298 304 309 314 296 302 307 297 294 296 300 298 272 270 303 308 311 316 299 276 278
5 265 299 290 285 55 11 347 357 324 277 240 269 261 305 6 338 313 298 304 309 300 287 279 286 276 279 279 272 283 312 308 309 313 308 303 295 299 294 304 305 311 324 341
336 271 265 271 286 303 284 244 256 253 230 280 261 280 286 297 197 245 252 283 285 292 288 281 275 301 312 303 304 295 286 299 311 303 298 298 298 291 291 290 291 275 294 300
225 268 270 274 280 280 284 284 279 259 259 259 278 281 286 290 281 291 29 291 281 288 309 309 306 294 286 285 285 285 277 277 290 293 293 291 292 283 284 274 281 289 275 278
246 260 283 283 285 273 270 271 270 268 269 265 267 269 273 314 310 12 339 301 279 280 279 276 283 297 324 340 331 327 327 317 298 278 272 277 281 274 273 281 274 276 265 276
235 239 292 277 291 303 273 263 270 287 300 274 274 314 342 352 1 343 304 312 323 317 316 324 336 331 329 323 318 321 312 299 290 289 295 295 300 301 303 279 276 270 272 259
234 251 266 283 291 271 285 5 321 249 247 27 345 336 22 14 345 326 313 318 357 338 330 327 324 319 315 310 306 310 305 303 296 294 299 295 288 286 290 288 289 282 269 249
214 221 247 260 279 284 284 329 315 53 322 59 12 350 345 338 328 314 327 349 331 326 319 308 302 312 315 303 302 302 293 286 283 281 279 279 284 279 277 283 282 273 275 265
198 210 176 272 280 287 39 208 210 358 290 22 357 340 330 331 313 311 341 323 318 315 306 307 304 307 309 302 299 284 278 279 275 268 261 265 267 269 271 269 268 289 302 254
160 188 226 236 248 266 45 263 277 249 10 336 336 325 318 315 320 320 314 309 309 303 306 319 310 314 315 318 312 300 300 278 274 277 267 267 265 267 266 259 268 271 270 294
196 195 197 219 235 244 8 337 351 342 319 319 331 309 322 318 315 310 317 321 321 318 309 309 322 320 313 305 292 290 284 281 287 285 273 270 269 262 256 252 252 256 256 253
262 225 246 224 287 285 301 297 336 322 312 328 306 323 328 317 318 320 319 315 307 305 316 324 312 306 297 297 299 295 280 287 277 269 269 270 265 255 250 249 249 248 253 257
290 345 247 297 279 292 291 43 291 316 335 303 330 329 326 321 321 316 314 316 313 327 323 326 312 300 299 298 294 287 289 292 287 278 270 266 260 257 250 245 240 239 235 239
272 279 278 281 345 342 126 311 342 335 318 334 327 328 326 320 316 319 316 321 321 319 323 321 307 302 297 295 292 289 286 286 279 276 273 267 265 262 250 239 241 245 247 232
285 344 313 310 311 287 304 330 325 310 328 329 330 328 318 320 321 326 323 320 322 320 322 313 305 301 300 299 294 291 286 281 278 275 268 262 257 257 256 251 245 234 240 253